カタログに戻る

YAMAL 601

運用中通信GEO
NORAD 44307·PAYLOAD·🇷🇺 Russia

打ち上げ May 30, 2019 から Baikonur Cosmodrome

Loading…

TLE

最新Source: Space-Track

元期: Sep 14, 2026, 22:35 UTC

1 44307U 19031A   26257.94124083  .00000113  00000-0  00000-0 0  9990
2 44307   0.0157 154.5879 0002404  12.2150 214.9598  1.00272317 26822

AllMySatでYAMAL 601をリアルタイム追跡

Download on the App Store